STARLINK-31918, 60037

Orbit data source: Space-Track

STARLINK-31918, 60037 is a payload satellite owned by SpaceX/Seattle (US) in LEO that was launched on Sat, 08 Jun 2024 UTC via an FALCON 9 launch vehicle from the Air Force Eastern Test Range (AFETR). Payload-class satellites include a variety of spacecraft equipped with specific instruments for various scientific and technological missions. These include communications satellites like Starlink; space stations such as the ISS; scientific satellites like the Hubble; Earth observation satellites from companies like Planet Labs, Umbra, and HawkEye 360; GPS; miniature CubeSats for education and research; and military/defense satellites.

Loading next visibility...
Identifier
60037, 2024-111X
Orbit
LEO
Country
Flag of USUS
Related business
Manufacturer
SpaceX/Seattle
Mission
Operational Commercial Communications
Bus & Motor
STARLINK V2M, Unknown motor
Mass
730 kg wet, ~700 kg dry
Launch date (UTC)
2024-06-08 (2 years ago)
Launch vehicle
FALCON 9
Launch site
Air Force Eastern Test Range (AFETR)
Object type
Payload
Rocket body
Debris
Shape & HBR
Box + 2 Pan, 17.7 m
Radar Cross Section
33.884 m², Large (>1 m²)

Expand to show TLE details & history
Last TLE update: 2 days ago

TLE from 2 days ago
0 STARLINK-31918
1 60037U 24111X   26171.41081306 -.00000845  00000-0 -16404-4 0  9993
2 60037  53.1605 318.2747 0001695  90.2826 269.8369 15.30183681114698
Epoch: 2026-06-20T09:51Z
TLE epoch observation values (Epoch: 2026-06-20T09:51:34.248Z)
Latitude
-0.00002°
Longitude
-98.24384°
Altitude
476.167 km
Speed
7.629 km/s
True Right ascension
21h 13m 05s
True Declination
0° 00' 00"
Sunlit
Object was in full shadow at epoch
Visualization orbit readout
Latitude
Unknown
Longitude
Unknown
Altitude
Unknown
Speed
Unknown
Apparent Right ascension
Unknown
Apparent Declination
Unknown
Sunlit
N/A
Visualization observer readout
Local Sidereal Time
21:27:06
Azimuth
Unknown
Elevation
Unknown
Doppler factor
Unknown
Orbital elements
Apogee altitude
476.682 km
Perigee altitude
474.358 km
Semi-major axis
6,853.657 km
Eccentricity
0.00017
Inclination
53.1605°
RAAN
318.2747°
Arg. of periapsis
90.2826°
True anomaly
269.81748°
Mean anomaly
269.8369°
Eccentric anomaly
269.82719°
Mean motion
3.82525 °/min
Orbital period
94.11 mins
BSTAR
-0.000016404
Loading maneuver chart data...
Computing Atmospheric mass density...
Loading historical data...
Loading historical data...
Loading historical data...
Loading historical data...
Loading historical data...
Loading historical data...
Loading historical data...

Documentation

Showing up to 5 results
|